Погода в Ванзетуре

Россия / Ханты-Мансийский автономный округ - Югра     63°32′11″N   64°48′49″E
темп.,
°C
ветер,
м/с
пор.,
м/с
влажн.,
%
обл.,
%
осадки,
мм/ч
давл.,
гПа
погр.,
м
18 мая, ср
ср1823:00+7с387196 0.0 1001337
02:00+5ссв4776100 0.0 1002404
05:00+4ссв377294 0.0 1003434
08:00+5св4659100 0.0 1004622
11:00+8св4551100 0.0 1005861
14:00+8св3460100 0.3 1005887
17:00+9всв455998 0.3 10041027
20:00+8св4871100 0.1 1004646
19 мая, чт
чт1923:00+6св51082100 0.1 1003616
02:00+5ссв51185100 0.2 1002561
05:00+4ссв51089100 0.3 1002525
08:00+4ссв51089100 0.1 1002513
11:00+5ссв5989100 0.2 1002524
14:00+5ссв5989100 0.0 1001589
17:00+5ссв51089100 0.0 1001584
20:00+4с61189100 0.0 1001577
20 мая, пт
пт2023:00+3с61392100 0.0 1000565
02:00+3с61391100 0.1 999671
05:00+3с71490100 1.6 998731
08:00+1с71798100 6.4 997630
11:00+1с61495100 13.6 997828
14:00+1с71596100 4.7 998773
17:00+1с71496100 7.3 998673
20:00+2с61495100 2.5 1000712
21 мая, сб
сб2123:00+2с61395100 2.9 1000631
02:00+2ссв51297100 0.1 1001563
05:00+2ссв51197100 0.1 1001545
08:00+2ссв51094100 0.6 1002529
11:00+4св5992100 0.9 1002587
14:00+4св4993100 0.8 1002474
17:00+4св4994100 1.1 1002489
20:00+4св4997100 0.4 1001371
22 мая, вс
вс2223:00+5св4998100 1.1 1000412
02:00+5св51098100 0.5 997413
05:00+4ссв81696100 4.8 992769
08:00+7св91891100 5.2 9881264
11:00+8всв71594100 9.3 985835
14:00+9в41098100 2.2 985503
17:00+4ю5992100 5.6 988784
20:00+4ю5982100 0.0 9901055